Tracking 19792 objects as of 16-Jul-2019
HD Live streaming from Space Station
objects crossing your sky now

COSMOS 1823 DEB

Track COSMOS 1823 DEB now!
10-day predictions


NORAD ID: 18737
Int'l Code: 1987-020Q
Perigee: 1,485.0 km
Apogee: 1,530.1 km
Inclination: 73.6 °
Period: 116.0 minutes
Semi major axis: 7878 km
RCS: 0.232 m2 (medium)
Launch date: February 20, 1987
Source: Commonwealth of Independent States (former USSR) (CIS)
Launch site: PLESETSK MISSILE AND SPACE COMPLEX (PKMTR)

Note: This is SATELLITE DEBRIS
aabbcc
Your satellite tracking list
Your tracking list is empty




NASA's NSSDC Master Catalog

Two Line Element Set (TLE):
1 18737U 87020Q   19196.80976523 -.00000015 +00000-0 +14746-4 0  9992
2 18737 073.6019 194.0480 0028616 257.3993 168.4521 12.41471819430834
Source of the keplerian elements: AFSPC